Precipitable_Water
0.47 0.47 0.47 0.46 0.46 0.47 0.47 0.48 0.48 0.47 0.50 0.51 0.53 0.56 0.57 0.57 0.58 0.58 0.60 0.62 0.63 0.63 0.64 0.65 0.67 0.67 0.67 0.66 0.64 0.59 0.55 0.42 0.33 0.29 0.28 0.27 0.34 0.34 0.30 0.42 0.47 0.44 0.37 0.42 0.51 0.69 0.54 0.60 0.66 0.93 0.96 1.05 1.11 1.15 1.41 1.44 1.52 1.42 1.16 1.08 0.95 1.01 0.96 1.10 1.04 1.11 1.19 1.12 1.22 1.20 1.35 1.34 1.24 1.35 1.42 1.52 1.41 1.42 1.45 1.47 1.55 1.57 1.48 1.50 1.57 1.65 1.62 1.64
0.44 0.44 0.43 0.43 0.44 0.44 0.45 0.44 0.45 0.48 0.48 0.48 0.48 0.48 0.50 0.52 0.53 0.56 0.58 0.59 0.59 0.59 0.60 0.64 0.67 0.69 0.69 0.67 0.66 0.64 0.55 0.43 0.30 0.28 0.23 0.29 0.38 0.39 0.39 0.35 0.37 0.43 0.43 0.33 0.36 0.58 0.54 0.56 0.64 0.85 0.93 0.88 1.18 1.04 1.33 1.22 1.46 1.19 1.12 1.07 0.91 1.03 1.07 1.18 1.18 1.19 1.17 1.14 1.20 1.29 1.30 1.26 1.33 1.39 1.42 1.30 1.32 1.34 1.31 1.42 1.47 1.39 1.47 1.53 1.56 1.58 1.56 1.58
0.41 0.42 0.41 0.41 0.42 0.43 0.41 0.43 0.44 0.42 0.41 0.43 0.44 0.48 0.49 0.49 0.50 0.51 0.54 0.57 0.57 0.57 0.58 0.62 0.67 0.69 0.70 0.69 0.67 0.65 0.56 0.38 0.32 0.21 0.20 0.28 0.35 0.36 0.38 0.40 0.43 0.45 0.37 0.24 0.30 0.50 0.54 0.55 0.65 0.78 0.88 0.86 1.06 1.00 1.12 1.15 1.28 1.26 1.11 0.97 1.00 1.12 1.13 1.23 1.25 1.22 1.26 1.26 1.19 1.21 1.28 1.35 1.36 1.35 1.45 1.24 1.27 1.33 1.27 1.24 1.32 1.32 1.30 1.39 1.46 1.50 1.51 1.54
0.39 0.40 0.39 0.39 0.40 0.40 0.40 0.40 0.38 0.40 0.40 0.39 0.42 0.42 0.44 0.46 0.46 0.47 0.49 0.53 0.55 0.57 0.57 0.62 0.67 0.69 0.71 0.69 0.70 0.65 0.54 0.39 0.22 0.22 0.33 0.40 0.36 0.35 0.36 0.37 0.43 0.45 0.38 0.29 0.30 0.45 0.59 0.66 0.70 0.76 0.81 0.82 0.97 1.09 1.02 1.09 1.03 1.24 1.09 0.92 0.98 1.15 1.09 1.19 1.28 1.26 1.27 1.26 1.22 1.20 1.28 1.32 1.38 1.29 1.37 1.27 1.19 1.25 1.28 1.35 1.26 1.26 1.28 1.33 1.41 1.45 1.47 1.48
0.39 0.38 0.38 0.37 0.37 0.36 0.37 0.37 0.38 0.37 0.36 0.37 0.38 0.40 0.42 0.44 0.44 0.44 0.45 0.48 0.52 0.55 0.58 0.61 0.67 0.70 0.72 0.71 0.68 0.67 0.51 0.27 0.25 0.39 0.41 0.45 0.44 0.37 0.39 0.39 0.43 0.42 0.35 0.28 0.31 0.44 0.58 0.62 0.70 0.74 0.79 0.72 0.94 1.01 0.96 1.10 1.05 1.14 1.05 1.07 1.07 1.13 1.08 1.20 1.23 1.25 1.23 1.32 1.26 1.22 1.14 1.20 1.32 1.33 1.36 1.29 1.12 1.12 1.30 1.38 1.43 1.36 1.37 1.33 1.36 1.42 1.45 1.47
0.38 0.38 0.36 0.37 0.37 0.36 0.35 0.34 0.34 0.36 0.37 0.36 0.36 0.36 0.38 0.39 0.41 0.42 0.43 0.45 0.48 0.52 0.58 0.61 0.67 0.71 0.74 0.74 0.68 0.60 0.46 0.14 0.40 0.45 0.48 0.45 0.44 0.40 0.41 0.41 0.43 0.39 0.35 0.26 0.24 0.36 0.50 0.59 0.65 0.66 0.73 0.78 0.82 0.82 0.95 1.04 1.14 0.84 1.02 1.10 1.10 1.15 1.08 1.26 1.22 1.19 1.23 1.26 1.20 1.20 1.19 1.25 1.27 1.27 1.37 1.33 1.22 1.29 1.48 1.54 1.49 1.42 1.41 1.39 1.39 1.41 1.40 1.44
0.38 0.36 0.37 0.37 0.35 0.35 0.33 0.34 0.34 0.32 0.33 0.33 0.33 0.35 0.36 0.36 0.37 0.40 0.41 0.43 0.45 0.49 0.55 0.62 0.68 0.75 0.75 0.75 0.64 0.53 0.41 0.35 0.39 0.52 0.51 0.48 0.42 0.47 0.41 0.42 0.44 0.36 0.32 0.23 0.22 0.33 0.42 0.52 0.60 0.64 0.71 0.76 0.85 0.85 0.94 0.98 1.08 0.97 0.90 1.03 1.08 1.11 1.09 1.22 1.19 1.19 1.20 1.19 1.19 1.23 1.27 1.16 1.18 1.10 1.28 1.33 1.40 1.44 1.48 1.57 1.50 1.47 1.41 1.41 1.35 1.37 1.35 1.40
0.38 0.37 0.37 0.36 0.34 0.34 0.34 0.33 0.33 0.32 0.30 0.31 0.32 0.32 0.33 0.34 0.35 0.38 0.39 0.41 0.43 0.47 0.54 0.61 0.69 0.73 0.76 0.65 0.54 0.44 0.38 0.35 0.37 0.46 0.49 0.46 0.48 0.49 0.51 0.47 0.41 0.34 0.27 0.20 0.20 0.28 0.39 0.44 0.51 0.65 0.70 0.70 0.80 0.84 0.94 0.93 1.01 0.91 0.88 1.00 1.10 1.16 1.20 1.23 1.19 1.18 1.20 1.17 1.27 1.28 1.20 1.09 1.16 1.20 1.24 1.24 1.37 1.45 1.50 1.57 1.53 1.44 1.37 1.34 1.34 1.33 1.35 1.40
0.39 0.38 0.38 0.37 0.36 0.34 0.33 0.32 0.30 0.30 0.30 0.30 0.29 0.30 0.30 0.32 0.35 0.37 0.38 0.40 0.41 0.45 0.53 0.61 0.66 0.74 0.80 0.66 0.51 0.41 0.36 0.45 0.39 0.43 0.44 0.39 0.41 0.48 0.52 0.42 0.41 0.32 0.26 0.22 0.21 0.26 0.34 0.38 0.48 0.61 0.60 0.73 0.87 0.78 0.88 0.84 0.81 0.95 0.92 0.97 1.01 1.08 1.11 1.15 1.17 1.18 1.20 1.23 1.22 1.18 1.07 1.19 1.12 1.32 1.16 1.23 1.36 1.45 1.48 1.49 1.46 1.40 1.31 1.28 1.29 1.31 1.31 1.35
0.40 0.40 0.39 0.38 0.37 0.36 0.34 0.33 0.32 0.31 0.29 0.29 0.29 0.28 0.30 0.32 0.35 0.36 0.37 0.39 0.40 0.44 0.52 0.60 0.66 0.70 0.67 0.55 0.49 0.35 0.43 0.47 0.45 0.50 0.49 0.42 0.41 0.40 0.40 0.40 0.41 0.33 0.26 0.23 0.21 0.23 0.29 0.37 0.42 0.58 0.70 0.75 0.87 0.81 0.86 0.81 0.76 0.92 0.93 0.95 0.94 1.01 1.06 1.14 1.10 1.18 1.22 1.18 1.23 1.14 1.12 1.19 1.29 1.23 1.07 1.25 1.34 1.43 1.42 1.37 1.38 1.32 1.25 1.23 1.25 1.28 1.31 1.32
0.40 0.39 0.38 0.38 0.36 0.36 0.35 0.33 0.32 0.30 0.30 0.29 0.28 0.28 0.30 0.32 0.34 0.36 0.37 0.38 0.41 0.43 0.52 0.58 0.67 0.66 0.52 0.56 0.41 0.35 0.58 0.50 0.49 0.48 0.53 0.48 0.42 0.35 0.32 0.36 0.38 0.33 0.28 0.26 0.20 0.21 0.31 0.40 0.46 0.56 0.62 0.64 0.79 0.81 0.83 0.83 0.85 0.83 0.86 0.93 0.92 0.93 0.95 1.06 1.04 1.07 1.14 1.13 1.17 1.09 1.04 1.11 1.19 1.26 1.07 1.23 1.34 1.39 1.36 1.29 1.30 1.29 1.25 1.23 1.23 1.28 1.31 1.34
0.38 0.37 0.37 0.37 0.36 0.35 0.34 0.33 0.31 0.30 0.29 0.28 0.28 0.30 0.32 0.33 0.34 0.36 0.39 0.40 0.42 0.47 0.52 0.58 0.61 0.62 0.56 0.49 0.43 0.44 0.60 0.53 0.56 0.62 0.57 0.51 0.46 0.37 0.35 0.35 0.36 0.32 0.30 0.24 0.21 0.22 0.34 0.43 0.52 0.56 0.49 0.66 0.63 0.80 0.81 0.87 0.80 0.78 0.78 0.69 0.80 0.87 0.85 0.90 0.93 1.03 1.08 1.06 1.15 1.09 1.01 0.99 1.05 0.95 1.12 1.22 1.35 1.39 1.37 1.29 1.24 1.23 1.23 1.23 1.24 1.25 1.28 1.31
0.38 0.36 0.35 0.34 0.34 0.33 0.33 0.32 0.31 0.29 0.28 0.27 0.28 0.32 0.34 0.34 0.35 0.38 0.41 0.42 0.44 0.50 0.55 0.58 0.60 0.59 0.48 0.32 0.41 0.53 0.61 0.56 0.56 0.57 0.58 0.64 0.53 0.49 0.40 0.36 0.36 0.35 0.30 0.26 0.23 0.22 0.37 0.49 0.59 0.60 0.64 0.67 0.66 0.62 0.80 0.84 0.78 0.75 0.70 0.65 0.68 0.75 0.75 0.87 0.93 0.92 0.91 1.08 1.19 1.09 0.74 0.83 0.97 1.04 1.16 1.24 1.29 1.35 1.30 1.24 1.21 1.21 1.23 1.25 1.24 1.21 1.26 1.31
0.37 0.35 0.35 0.33 0.33 0.32 0.31 0.30 0.29 0.28 0.26 0.27 0.30 0.33 0.35 0.37 0.39 0.41 0.44 0.43 0.48 0.55 0.57 0.56 0.59 0.52 0.42 0.28 0.36 0.47 0.60 0.65 0.62 0.58 0.54 0.56 0.54 0.49 0.44 0.38 0.41 0.39 0.35 0.28 0.28 0.31 0.42 0.52 0.61 0.64 0.70 0.64 0.64 0.87 0.74 0.71 0.73 0.62 0.67 0.66 0.58 0.61 0.64 0.85 0.91 0.97 0.85 1.01 1.16 1.12 0.77 0.80 0.93 1.07 1.16 1.18 1.29 1.27 1.21 1.20 1.18 1.20 1.22 1.22 1.24 1.20 1.22 1.26
0.37 0.36 0.34 0.34 0.33 0.32 0.31 0.30 0.29 0.27 0.27 0.29 0.32 0.34 0.37 0.37 0.39 0.43 0.46 0.47 0.55 0.60 0.60 0.62 0.57 0.46 0.31 0.27 0.43 0.45 0.57 0.66 0.59 0.57 0.59 0.53 0.50 0.49 0.45 0.40 0.40 0.43 0.37 0.30 0.31 0.45 0.52 0.56 0.59 0.54 0.51 0.63 0.68 0.67 0.62 0.62 0.62 0.60 0.56 0.51 0.57 0.56 0.66 0.82 0.94 0.94 0.83 0.91 1.07 1.05 0.76 0.82 0.96 1.05 1.19 1.24 1.24 1.29 1.19 1.22 1.23 1.23 1.22 1.22 1.21 1.20 1.19 1.24
0.37 0.36 0.35 0.33 0.33 0.33 0.32 0.30 0.28 0.27 0.29 0.32 0.33 0.35 0.36 0.37 0.37 0.44 0.50 0.53 0.69 0.69 0.62 0.46 0.48 0.46 0.32 0.22 0.24 0.53 0.62 0.55 0.54 0.58 0.62 0.61 0.54 0.46 0.47 0.42 0.41 0.47 0.46 0.38 0.42 0.50 0.56 0.58 0.48 0.46 0.46 0.51 0.50 0.51 0.52 0.53 0.52 0.55 0.52 0.53 0.53 0.57 0.61 0.72 0.83 0.88 0.90 0.92 0.97 0.91 0.77 0.84 0.87 1.02 1.17 1.23 1.17 1.20 1.18 1.22 1.24 1.27 1.23 1.23 1.21 1.18 1.18 1.21
0.39 0.37 0.36 0.33 0.33 0.33 0.31 0.30 0.28 0.28 0.31 0.34 0.36 0.34 0.35 0.36 0.36 0.49 0.60 0.67 0.73 0.76 0.57 0.41 0.60 0.58 0.20 0.44 0.59 0.44 0.41 0.55 0.65 0.60 0.59 0.60 0.54 0.51 0.46 0.41 0.41 0.43 0.47 0.47 0.45 0.48 0.52 0.50 0.51 0.44 0.42 0.38 0.41 0.45 0.41 0.40 0.41 0.45 0.51 0.49 0.58 0.58 0.63 0.58 0.76 0.81 0.86 0.85 0.85 0.94 0.84 0.88 0.93 0.95 1.09 1.15 1.14 1.16 1.15 1.21 1.27 1.29 1.31 1.27 1.26 1.23 1.19 1.17
0.39 0.38 0.36 0.35 0.33 0.33 0.32 0.29 0.27 0.28 0.31 0.35 0.37 0.36 0.33 0.35 0.39 0.55 0.61 0.62 0.59 0.67 0.70 0.68 0.59 0.46 0.25 0.36 0.23 0.23 0.48 0.54 0.60 0.61 0.59 0.60 0.54 0.50 0.50 0.42 0.46 0.44 0.44 0.41 0.45 0.39 0.48 0.42 0.47 0.33 0.32 0.31 0.33 0.35 0.31 0.27 0.35 0.39 0.44 0.44 0.48 0.58 0.63 0.64 0.61 0.69 0.76 0.83 0.79 0.89 0.87 0.86 0.91 0.91 1.03 1.09 1.17 1.15 1.17 1.22 1.23 1.25 1.32 1.31 1.29 1.23 1.18 1.18
0.39 0.37 0.37 0.35 0.34 0.32 0.30 0.29 0.27 0.27 0.31 0.37 0.40 0.40 0.33 0.38 0.36 0.56 0.49 0.47 0.34 0.28 0.27 0.52 0.38 0.16 0.13 0.38 0.47 0.39 0.40 0.58 0.62 0.61 0.56 0.55 0.53 0.50 0.54 0.60 0.57 0.45 0.36 0.33 0.36 0.36 0.44 0.41 0.43 0.33 0.24 0.23 0.24 0.28 0.30 0.34 0.41 0.43 0.47 0.46 0.49 0.48 0.53 0.56 0.61 0.73 0.71 0.72 0.71 0.79 0.82 0.83 0.87 0.89 0.98 1.07 1.15 1.15 1.18 1.23 1.22 1.21 1.26 1.30 1.26 1.22 1.20 1.17
0.38 0.38 0.36 0.35 0.32 0.31 0.29 0.28 0.27 0.26 0.32 0.36 0.36 0.35 0.27 0.15 0.13 0.19 0.39 0.19 0.15 0.14 0.12 0.12 0.25 0.42 0.39 0.32 0.35 0.48 0.53 0.53 0.47 0.55 0.56 0.55 0.52 0.47 0.47 0.55 0.55 0.46 0.35 0.28 0.33 0.34 0.42 0.32 0.29 0.24 0.23 0.24 0.24 0.28 0.32 0.37 0.41 0.47 0.52 0.54 0.53 0.50 0.51 0.58 0.60 0.70 0.73 0.70 0.69 0.74 0.81 0.87 0.87 0.86 0.97 1.08 1.14 1.16 1.15 1.15 1.18 1.17 1.20 1.25 1.26 1.23 1.24 1.21
0.38 0.37 0.36 0.34 0.32 0.30 0.27 0.27 0.27 0.26 0.32 0.38 0.40 0.31 0.14 0.15 0.10 0.09 0.14 0.16 0.18 0.18 0.17 0.16 0.15 0.13 0.18 0.30 0.40 0.42 0.37 0.39 0.40 0.44 0.53 0.55 0.51 0.44 0.39 0.46 0.47 0.37 0.32 0.33 0.33 0.41 0.39 0.31 0.27 0.30 0.31 0.29 0.26 0.28 0.33 0.36 0.38 0.40 0.46 0.49 0.49 0.51 0.47 0.53 0.56 0.67 0.73 0.63 0.68 0.74 0.77 0.84 0.88 0.87 0.90 1.00 1.00 0.99 1.11 1.15 1.16 1.15 1.17 1.18 1.20 1.24 1.24 1.21
0.38 0.38 0.36 0.34 0.33 0.30 0.26 0.25 0.28 0.25 0.32 0.40 0.40 0.22 0.20 0.19 0.20 0.21 0.20 0.12 0.17 0.19 0.18 0.17 0.18 0.17 0.18 0.18 0.35 0.47 0.41 0.33 0.34 0.37 0.49 0.51 0.43 0.35 0.36 0.41 0.43 0.35 0.35 0.36 0.38 0.38 0.31 0.24 0.26 0.34 0.38 0.35 0.33 0.30 0.30 0.32 0.34 0.37 0.39 0.44 0.45 0.48 0.51 0.55 0.53 0.58 0.66 0.62 0.64 0.72 0.73 0.79 0.86 0.89 0.90 0.91 0.94 1.00 1.08 1.14 1.18 1.18 1.17 1.16 1.17 1.22 1.29 1.28
0.40 0.38 0.36 0.35 0.33 0.31 0.27 0.26 0.29 0.27 0.31 0.36 0.30 0.22 0.21 0.22 0.22 0.24 0.25 0.20 0.14 0.18 0.16 0.16 0.15 0.15 0.15 0.17 0.20 0.39 0.31 0.30 0.28 0.33 0.38 0.44 0.36 0.36 0.38 0.42 0.45 0.42 0.40 0.38 0.33 0.31 0.28 0.24 0.28 0.40 0.41 0.37 0.33 0.33 0.30 0.29 0.34 0.36 0.38 0.40 0.38 0.44 0.44 0.42 0.47 0.53 0.61 0.59 0.60 0.67 0.67 0.75 0.85 0.89 0.90 0.92 0.91 1.01 1.08 1.15 1.22 1.25 1.18 1.16 1.16 1.20 1.24 1.24
0.40 0.39 0.36 0.34 0.33 0.31 0.27 0.26 0.31 0.25 0.30 0.39 0.34 0.25 0.28 0.25 0.22 0.24 0.19 0.14 0.12 0.13 0.21 0.23 0.22 0.19 0.16 0.14 0.16 0.27 0.26 0.28 0.32 0.29 0.40 0.37 0.31 0.36 0.41 0.48 0.48 0.47 0.41 0.42 0.38 0.31 0.24 0.28 0.37 0.41 0.45 0.41 0.34 0.32 0.32 0.30 0.27 0.34 0.37 0.38 0.37 0.41 0.43 0.42 0.44 0.48 0.59 0.60 0.62 0.64 0.63 0.68 0.75 0.79 0.83 0.89 0.93 0.98 1.05 1.10 1.13 1.22 1.25 1.24 1.25 1.25 1.24 1.20
0.40 0.38 0.36 0.34 0.31 0.33 0.26 0.27 0.21 0.22 0.33 0.39 0.26 0.29 0.26 0.23 0.23 0.24 0.20 0.15 0.16 0.14 0.33 0.30 0.31 0.24 0.20 0.27 0.21 0.15 0.24 0.28 0.31 0.34 0.38 0.34 0.29 0.32 0.38 0.55 0.54 0.44 0.44 0.45 0.41 0.35 0.31 0.40 0.48 0.39 0.42 0.45 0.38 0.32 0.30 0.33 0.28 0.28 0.33 0.35 0.36 0.40 0.40 0.42 0.45 0.44 0.48 0.51 0.55 0.57 0.52 0.54 0.68 0.74 0.79 0.85 0.88 0.89 1.03 1.01 1.01 1.05 1.17 1.27 1.25 1.23 1.25 1.28
0.40 0.38 0.36 0.34 0.30 0.33 0.29 0.19 0.19 0.30 0.34 0.29 0.26 0.26 0.25 0.22 0.22 0.23 0.20 0.12 0.08 0.22 0.32 0.24 0.33 0.28 0.28 0.20 0.23 0.18 0.20 0.21 0.31 0.35 0.38 0.35 0.33 0.30 0.39 0.45 0.51 0.40 0.44 0.44 0.39 0.36 0.32 0.42 0.48 0.40 0.36 0.40 0.38 0.33 0.33 0.32 0.31 0.29 0.26 0.31 0.34 0.38 0.42 0.42 0.41 0.39 0.39 0.41 0.51 0.59 0.47 0.48 0.62 0.67 0.75 0.82 0.84 0.86 0.94 0.93 0.93 0.98 1.03 1.14 1.22 1.23 1.24 1.26
0.40 0.38 0.36 0.33 0.32 0.35 0.21 0.14 0.31 0.35 0.25 0.24 0.26 0.27 0.24 0.20 0.25 0.25 0.16 0.14 0.07 0.27 0.26 0.36 0.32 0.32 0.31 0.27 0.20 0.18 0.10 0.13 0.30 0.37 0.34 0.39 0.28 0.32 0.33 0.38 0.47 0.50 0.52 0.51 0.44 0.34 0.40 0.41 0.43 0.40 0.35 0.33 0.36 0.32 0.34 0.33 0.28 0.27 0.34 0.31 0.27 0.34 0.39 0.42 0.42 0.38 0.37 0.50 0.55 0.57 0.52 0.45 0.51 0.59 0.72 0.79 0.77 0.78 0.83 0.90 0.90 0.94 0.97 1.03 1.11 1.19 1.21 1.24
0.39 0.37 0.35 0.33 0.34 0.36 0.29 0.31 0.34 0.30 0.29 0.32 0.31 0.27 0.23 0.22 0.24 0.27 0.19 0.06 0.06 0.26 0.29 0.33 0.36 0.40 0.37 0.33 0.27 0.13 0.12 0.21 0.17 0.26 0.36 0.41 0.33 0.29 0.30 0.34 0.40 0.44 0.51 0.49 0.30 0.36 0.44 0.36 0.37 0.34 0.30 0.30 0.29 0.31 0.34 0.36 0.30 0.29 0.36 0.38 0.33 0.28 0.36 0.39 0.41 0.39 0.37 0.39 0.45 0.49 0.54 0.44 0.43 0.56 0.65 0.70 0.69 0.73 0.75 0.80 0.87 0.90 0.94 1.00 1.04 1.10 1.18 1.25
0.38 0.36 0.35 0.35 0.36 0.36 0.40 0.36 0.36 0.32 0.36 0.32 0.28 0.24 0.24 0.26 0.24 0.17 0.13 0.04 0.07 0.23 0.45 0.31 0.46 0.38 0.35 0.34 0.27 0.18 0.12 0.22 0.17 0.23 0.33 0.40 0.40 0.30 0.26 0.32 0.39 0.47 0.52 0.48 0.36 0.41 0.43 0.41 0.36 0.33 0.28 0.24 0.30 0.34 0.36 0.36 0.31 0.33 0.38 0.43 0.44 0.42 0.32 0.35 0.39 0.36 0.35 0.32 0.30 0.45 0.49 0.40 0.40 0.50 0.57 0.62 0.61 0.64 0.69 0.74 0.85 0.85 0.95 0.98 1.00 1.05 1.13 1.22
0.40 0.37 0.36 0.39 0.39 0.33 0.30 0.39 0.38 0.36 0.30 0.26 0.27 0.27 0.26 0.25 0.18 0.13 0.11 0.05 0.28 0.18 0.29 0.34 0.31 0.31 0.34 0.28 0.29 0.24 0.15 0.14 0.23 0.29 0.28 0.29 0.38 0.37 0.33 0.38 0.39 0.40 0.44 0.48 0.45 0.45 0.44 0.45 0.41 0.31 0.25 0.26 0.30 0.32 0.33 0.32 0.33 0.37 0.35 0.38 0.39 0.36 0.34 0.28 0.33 0.33 0.30 0.25 0.28 0.34 0.46 0.42 0.36 0.47 0.51 0.54 0.57 0.63 0.68 0.72 0.78 0.90 0.95 0.95 0.95 1.01 1.08 1.14
0.40 0.38 0.37 0.45 0.38 0.38 0.38 0.28 0.30 0.35 0.39 0.29 0.29 0.27 0.25 0.23 0.14 0.10 0.07 0.16 0.20 0.22 0.27 0.29 0.28 0.35 0.30 0.27 0.23 0.30 0.23 0.18 0.16 0.23 0.30 0.30 0.34 0.35 0.33 0.31 0.38 0.35 0.35 0.41 0.42 0.44 0.45 0.44 0.38 0.35 0.32 0.31 0.34 0.34 0.36 0.36 0.32 0.33 0.33 0.32 0.33 0.27 0.27 0.26 0.22 0.28 0.23 0.20 0.28 0.31 0.33 0.47 0.35 0.42 0.50 0.57 0.63 0.63 0.63 0.63 0.67 0.85 0.90 0.92 0.95 1.03 1.07 1.11
0.43 0.40 0.43 0.48 0.47 0.52 0.34 0.28 0.34 0.45 0.38 0.31 0.30 0.26 0.22 0.13 0.15 0.12 0.10 0.26 0.15 0.20 0.21 0.25 0.30 0.30 0.31 0.32 0.30 0.30 0.31 0.26 0.22 0.22 0.25 0.29 0.30 0.31 0.30 0.24 0.26 0.25 0.24 0.26 0.31 0.41 0.38 0.37 0.40 0.39 0.38 0.31 0.32 0.32 0.36 0.36 0.34 0.31 0.32 0.31 0.23 0.21 0.20 0.17 0.19 0.15 0.16 0.19 0.24 0.29 0.30 0.29 0.28 0.31 0.44 0.55 0.57 0.59 0.63 0.65 0.68 0.81 0.90 0.94 0.96 1.02 1.11 1.14
0.45 0.44 0.50 0.54 0.56 0.50 0.47 0.46 0.49 0.46 0.35 0.32 0.29 0.25 0.17 0.12 0.08 0.13 0.15 0.17 0.15 0.23 0.22 0.28 0.27 0.30 0.31 0.31 0.31 0.34 0.37 0.31 0.29 0.24 0.25 0.32 0.31 0.33 0.32 0.29 0.30 0.25 0.18 0.25 0.27 0.31 0.30 0.37 0.38 0.37 0.37 0.36 0.33 0.28 0.30 0.30 0.32 0.30 0.28 0.28 0.21 0.17 0.15 0.12 0.14 0.16 0.15 0.17 0.24 0.25 0.28 0.23 0.27 0.30 0.35 0.39 0.54 0.59 0.62 0.67 0.70 0.84 0.88 0.91 0.93 1.00 1.06 1.09
0.47 0.47 0.51 0.57 0.58 0.56 0.52 0.50 0.44 0.44 0.34 0.33 0.28 0.21 0.17 0.12 0.12 0.20 0.17 0.19 0.20 0.26 0.25 0.23 0.28 0.30 0.31 0.29 0.34 0.35 0.31 0.36 0.34 0.30 0.28 0.27 0.32 0.31 0.33 0.32 0.30 0.26 0.27 0.27 0.24 0.24 0.22 0.25 0.30 0.32 0.30 0.36 0.33 0.30 0.31 0.30 0.29 0.28 0.28 0.25 0.20 0.15 0.13 0.10 0.12 0.10 0.11 0.14 0.15 0.21 0.21 0.18 0.22 0.23 0.33 0.36 0.42 0.48 0.63 0.68 0.72 0.81 0.84 0.88 0.92 0.93 0.97 1.01
0.51 0.48 0.56 0.57 0.57 0.59 0.50 0.51 0.51 0.35 0.37 0.34 0.26 0.18 0.11 0.11 0.16 0.17 0.17 0.19 0.21 0.23 0.23 0.25 0.24 0.28 0.29 0.32 0.34 0.35 0.34 0.32 0.35 0.35 0.33 0.30 0.27 0.31 0.33 0.32 0.32 0.30 0.28 0.23 0.25 0.24 0.24 0.24 0.28 0.37 0.37 0.38 0.33 0.33 0.34 0.33 0.30 0.29 0.28 0.27 0.22 0.18 0.20 0.14 0.14 0.13 0.13 0.13 0.14 0.14 0.12 0.17 0.17 0.26 0.31 0.33 0.39 0.42 0.41 0.56 0.69 0.75 0.82 0.85 0.89 0.90 0.91 0.96
0.52 0.48 0.58 0.54 0.54 0.61 0.42 0.36 0.33 0.40 0.39 0.33 0.25 0.19 0.17 0.19 0.15 0.20 0.19 0.23 0.23 0.20 0.21 0.24 0.24 0.24 0.26 0.29 0.33 0.32 0.36 0.33 0.35 0.35 0.31 0.32 0.31 0.30 0.37 0.37 0.35 0.33 0.28 0.22 0.23 0.21 0.24 0.24 0.34 0.39 0.40 0.38 0.36 0.36 0.32 0.35 0.23 0.26 0.26 0.20 0.19 0.24 0.21 0.17 0.17 0.16 0.16 0.15 0.13 0.19 0.18 0.17 0.19 0.22 0.24 0.26 0.29 0.31 0.37 0.38 0.53 0.69 0.76 0.78 0.80 0.88 0.89 0.93
0.50 0.52 0.53 0.52 0.54 0.56 0.49 0.40 0.37 0.40 0.39 0.32 0.24 0.19 0.23 0.21 0.23 0.21 0.23 0.21 0.20 0.21 0.21 0.19 0.21 0.24 0.25 0.26 0.29 0.31 0.33 0.36 0.36 0.35 0.31 0.36 0.30 0.33 0.38 0.40 0.43 0.40 0.36 0.32 0.25 0.30 0.25 0.24 0.34 0.37 0.35 0.38 0.41 0.40 0.36 0.35 0.35 0.28 0.21 0.21 0.26 0.28 0.25 0.18 0.14 0.18 0.14 0.12 0.12 0.16 0.14 0.15 0.15 0.12 0.18 0.22 0.22 0.24 0.24 0.34 0.41 0.56 0.72 0.76 0.76 0.76 0.82 0.90
0.55 0.51 0.59 0.52 0.56 0.64 0.51 0.43 0.37 0.38 0.35 0.31 0.23 0.22 0.26 0.20 0.22 0.20 0.24 0.22 0.20 0.22 0.19 0.19 0.23 0.28 0.25 0.27 0.28 0.32 0.35 0.33 0.34 0.36 0.34 0.38 0.34 0.47 0.46 0.48 0.52 0.53 0.52 0.45 0.33 0.31 0.32 0.26 0.33 0.37 0.37 0.38 0.42 0.42 0.38 0.37 0.37 0.29 0.24 0.30 0.23 0.19 0.16 0.18 0.16 0.15 0.15 0.12 0.13 0.15 0.16 0.16 0.16 0.14 0.16 0.16 0.18 0.19 0.24 0.28 0.31 0.42 0.62 0.71 0.76 0.76 0.83 0.91
0.59 0.55 0.47 0.46 0.51 0.51 0.46 0.37 0.41 0.38 0.34 0.26 0.24 0.21 0.25 0.24 0.23 0.24 0.23 0.23 0.22 0.21 0.18 0.22 0.21 0.26 0.28 0.26 0.30 0.33 0.34 0.31 0.36 0.35 0.34 0.37 0.33 0.44 0.47 0.50 0.49 0.55 0.55 0.54 0.44 0.36 0.37 0.28 0.30 0.37 0.36 0.39 0.40 0.39 0.30 0.31 0.35 0.36 0.34 0.30 0.31 0.25 0.17 0.15 0.14 0.17 0.19 0.17 0.15 0.15 0.17 0.15 0.19 0.19 0.19 0.19 0.21 0.20 0.22 0.26 0.30 0.33 0.52 0.65 0.73 0.77 0.83 0.88
0.54 0.48 0.48 0.53 0.56 0.56 0.44 0.41 0.39 0.38 0.33 0.26 0.23 0.22 0.24 0.20 0.22 0.23 0.25 0.22 0.21 0.20 0.19 0.20 0.24 0.24 0.26 0.28 0.30 0.30 0.35 0.37 0.38 0.36 0.36 0.37 0.38 0.48 0.48 0.54 0.50 0.52 0.53 0.49 0.41 0.40 0.33 0.35 0.27 0.35 0.39 0.39 0.33 0.36 0.30 0.31 0.28 0.29 0.30 0.28 0.28 0.26 0.25 0.20 0.19 0.15 0.17 0.17 0.19 0.18 0.17 0.19 0.21 0.23 0.21 0.22 0.24 0.24 0.23 0.24 0.31 0.35 0.45 0.55 0.66 0.74 0.79 0.82
0.61 0.52 0.52 0.64 0.60 0.60 0.45 0.38 0.33 0.33 0.31 0.26 0.27 0.25 0.24 0.23 0.25 0.23 0.26 0.26 0.23 0.25 0.21 0.20 0.22 0.22 0.26 0.26 0.27 0.34 0.34 0.37 0.38 0.36 0.37 0.37 0.39 0.40 0.53 0.52 0.55 0.51 0.53 0.48 0.39 0.40 0.34 0.32 0.27 0.33 0.36 0.34 0.32 0.34 0.35 0.34 0.33 0.30 0.28 0.27 0.26 0.23 0.20 0.16 0.16 0.19 0.17 0.17 0.17 0.21 0.19 0.23 0.29 0.31 0.31 0.27 0.27 0.27 0.26 0.26 0.27 0.34 0.48 0.50 0.58 0.65 0.75 0.78
0.51 0.40 0.43 0.58 0.61 0.63 0.45 0.31 0.33 0.36 0.29 0.26 0.26 0.28 0.27 0.30 0.25 0.25 0.24 0.26 0.26 0.22 0.26 0.22 0.23 0.24 0.28 0.27 0.30 0.31 0.33 0.33 0.36 0.35 0.37 0.39 0.44 0.47 0.52 0.58 0.56 0.59 0.52 0.46 0.44 0.55 0.55 0.46 0.32 0.32 0.36 0.35 0.34 0.37 0.39 0.40 0.38 0.35 0.32 0.28 0.26 0.23 0.22 0.18 0.14 0.16 0.17 0.17 0.20 0.23 0.22 0.26 0.35 0.36 0.35 0.30 0.29 0.29 0.28 0.30 0.27 0.29 0.33 0.56 0.59 0.65 0.72 0.79
0.42 0.45 0.56 0.65 0.68 0.61 0.46 0.33 0.35 0.35 0.32 0.34 0.35 0.31 0.34 0.30 0.25 0.26 0.25 0.28 0.23 0.25 0.22 0.22 0.23 0.23 0.27 0.29 0.29 0.29 0.31 0.30 0.37 0.36 0.41 0.43 0.46 0.51 0.55 0.55 0.59 0.55 0.54 0.50 0.48 0.52 0.49 0.37 0.32 0.33 0.38 0.41 0.42 0.41 0.42 0.42 0.41 0.37 0.34 0.31 0.28 0.23 0.22 0.21 0.19 0.22 0.18 0.16 0.14 0.20 0.19 0.25 0.33 0.36 0.36 0.32 0.32 0.33 0.32 0.32 0.31 0.27 0.30 0.39 0.62 0.66 0.70 0.76
0.44 0.51 0.54 0.63 0.67 0.59 0.43 0.32 0.32 0.33 0.32 0.33 0.34 0.35 0.36 0.32 0.28 0.25 0.26 0.26 0.24 0.24 0.24 0.22 0.23 0.25 0.21 0.25 0.29 0.28 0.34 0.29 0.39 0.38 0.37 0.47 0.45 0.54 0.54 0.55 0.58 0.51 0.51 0.49 0.47 0.55 0.40 0.38 0.39 0.31 0.33 0.34 0.38 0.39 0.39 0.42 0.41 0.37 0.33 0.30 0.29 0.28 0.26 0.26 0.25 0.27 0.21 0.20 0.15 0.17 0.15 0.21 0.32 0.39 0.38 0.37 0.38 0.37 0.36 0.35 0.33 0.28 0.29 0.43 0.48 0.60 0.65 0.72
0.51 0.54 0.60 0.62 0.66 0.59 0.42 0.41 0.38 0.34 0.33 0.33 0.32 0.30 0.30 0.31 0.33 0.30 0.30 0.26 0.28 0.28 0.27 0.25 0.25 0.23 0.21 0.26 0.28 0.33 0.35 0.37 0.37 0.42 0.43 0.46 0.47 0.56 0.54 0.55 0.57 0.52 0.54 0.57 0.61 0.60 0.45 0.40 0.39 0.33 0.29 0.27 0.26 0.28 0.30 0.32 0.34 0.36 0.36 0.33 0.30 0.28 0.28 0.26 0.22 0.23 0.19 0.22 0.20 0.15 0.16 0.24 0.33 0.37 0.38 0.39 0.39 0.38 0.37 0.34 0.32 0.29 0.30 0.49 0.55 0.53 0.58 0.64
0.44 0.37 0.51 0.53 0.61 0.55 0.50 0.54 0.48 0.43 0.35 0.34 0.32 0.30 0.32 0.30 0.34 0.36 0.32 0.29 0.29 0.31 0.30 0.27 0.27 0.26 0.22 0.25 0.25 0.29 0.33 0.41 0.37 0.38 0.41 0.42 0.47 0.51 0.55 0.57 0.57 0.53 0.53 0.58 0.59 0.55 0.42 0.43 0.44 0.42 0.40 0.37 0.40 0.45 0.43 0.40 0.37 0.34 0.35 0.35 0.31 0.29 0.31 0.29 0.26 0.23 0.19 0.23 0.20 0.19 0.18 0.22 0.24 0.30 0.32 0.34 0.35 0.35 0.37 0.43 0.41 0.38 0.38 0.46 0.65 0.62 0.57 0.60
0.52 0.45 0.44 0.42 0.48 0.48 0.45 0.49 0.46 0.45 0.38 0.43 0.32 0.34 0.31 0.33 0.36 0.33 0.36 0.28 0.32 0.29 0.28 0.28 0.26 0.24 0.23 0.25 0.27 0.28 0.33 0.34 0.37 0.38 0.38 0.40 0.48 0.51 0.57 0.56 0.56 0.55 0.55 0.57 0.58 0.53 0.46 0.40 0.42 0.44 0.45 0.47 0.52 0.48 0.53 0.41 0.36 0.36 0.35 0.34 0.33 0.29 0.28 0.28 0.25 0.22 0.25 0.24 0.20 0.25 0.24 0.23 0.25 0.27 0.29 0.32 0.34 0.40 0.48 0.47 0.49 0.45 0.40 0.41 0.50 0.65 0.60 0.61
0.42 0.49 0.54 0.58 0.43 0.38 0.41 0.42 0.48 0.44 0.44 0.43 0.36 0.37 0.33 0.33 0.33 0.29 0.33 0.32 0.31 0.32 0.25 0.28 0.29 0.28 0.27 0.30 0.30 0.27 0.32 0.32 0.34 0.34 0.40 0.43 0.44 0.48 0.49 0.56 0.53 0.54 0.56 0.54 0.59 0.51 0.43 0.38 0.43 0.46 0.45 0.49 0.53 0.51 0.55 0.48 0.39 0.36 0.35 0.35 0.32 0.29 0.27 0.25 0.26 0.28 0.25 0.22 0.23 0.27 0.28 0.26 0.29 0.31 0.32 0.31 0.28 0.42 0.46 0.51 0.53 0.56 0.47 0.49 0.57 0.63 0.65 0.69
0.56 0.55 0.55 0.59 0.42 0.46 0.47 0.48 0.50 0.47 0.42 0.40 0.37 0.36 0.34 0.34 0.33 0.35 0.32 0.31 0.31 0.30 0.31 0.22 0.25 0.27 0.28 0.30 0.28 0.26 0.29 0.27 0.29 0.37 0.38 0.41 0.43 0.45 0.45 0.50 0.54 0.59 0.57 0.54 0.56 0.55 0.46 0.39 0.44 0.46 0.45 0.47 0.52 0.52 0.53 0.49 0.44 0.38 0.36 0.36 0.34 0.30 0.27 0.26 0.28 0.30 0.28 0.26 0.29 0.33 0.29 0.29 0.31 0.35 0.33 0.33 0.32 0.43 0.49 0.53 0.53 0.60 0.56 0.54 0.67 0.67 0.72 0.74
0.53 0.51 0.47 0.54 0.51 0.47 0.49 0.50 0.48 0.46 0.39 0.42 0.35 0.36 0.36 0.35 0.34 0.37 0.39 0.35 0.28 0.28 0.34 0.26 0.27 0.28 0.29 0.27 0.29 0.27 0.31 0.34 0.36 0.32 0.39 0.42 0.43 0.46 0.44 0.48 0.49 0.56 0.56 0.53 0.55 0.55 0.48 0.37 0.41 0.43 0.43 0.46 0.53 0.55 0.55 0.52 0.48 0.43 0.39 0.37 0.34 0.33 0.28 0.28 0.29 0.30 0.31 0.30 0.29 0.38 0.34 0.32 0.34 0.44 0.44 0.44 0.42 0.45 0.45 0.49 0.49 0.61 0.64 0.65 0.72 0.76 0.80 0.77
0.68 0.70 0.63 0.47 0.40 0.44 0.48 0.48 0.46 0.44 0.39 0.39 0.36 0.36 0.35 0.35 0.34 0.36 0.33 0.38 0.34 0.30 0.32 0.28 0.30 0.30 0.31 0.29 0.28 0.28 0.35 0.37 0.38 0.39 0.40 0.42 0.39 0.46 0.45 0.47 0.55 0.51 0.53 0.52 0.53 0.52 0.49 0.39 0.41 0.41 0.38 0.40 0.50 0.53 0.53 0.52 0.48 0.46 0.43 0.39 0.36 0.33 0.29 0.27 0.27 0.29 0.30 0.30 0.31 0.43 0.37 0.37 0.41 0.45 0.47 0.49 0.49 0.47 0.47 0.50 0.55 0.61 0.67 0.69 0.72 0.75 0.79 0.85
0.76 0.76 0.70 0.56 0.40 0.47 0.43 0.46 0.47 0.45 0.37 0.41 0.40 0.40 0.40 0.38 0.37 0.38 0.34 0.37 0.38 0.38 0.35 0.34 0.34 0.32 0.31 0.30 0.27 0.31 0.35 0.37 0.38 0.39 0.40 0.42 0.46 0.47 0.51 0.52 0.53 0.51 0.50 0.52 0.56 0.50 0.48 0.42 0.37 0.38 0.35 0.38 0.50 0.55 0.55 0.50 0.46 0.41 0.40 0.40 0.39 0.38 0.34 0.30 0.29 0.30 0.31 0.36 0.34 0.39 0.39 0.41 0.44 0.47 0.44 0.48 0.50 0.49 0.49 0.50 0.52 0.53 0.55 0.64 0.72 0.77 0.79 0.86
Wind_Speed
18 18 19 19 19 19 20 20 20 20 20 20 20 20 20 19 19 18 18 17 17 16 16 16 16 15 15 14 13 13 12 12 12 12 14 14 14 15 14 14 12 14 16 16 15 15 15 16 16 17 16 15 14 13 13 13 11 9 7 6 6 6 5 4 3 2 3 1 1 0 1 3 5 6 7 6 6 7 7 7 7 7 8 10 13 16 17 18
19 19 19 20 20 20 20 20 21 20 20 20 20 20 20 20 19 19 18 18 17 17 17 16 16 16 15 14 14 13 12 12 12 13 15 15 14 15 15 15 14 14 15 17 17 17 16 16 17 17 16 15 14 13 13 13 13 10 8 7 7 7 6 6 5 4 3 2 2 1 0 4 6 6 7 5 5 5 5 7 8 8 9 11 15 17 17 18
20 20 20 20 21 21 21 21 21 21 21 21 21 21 20 20 20 19 19 18 18 18 17 17 16 16 15 15 14 13 12 12 12 13 13 13 16 17 16 15 15 15 15 16 18 18 17 17 17 17 16 14 14 14 13 13 13 11 9 8 8 8 7 7 6 5 4 3 2 3 1 4 7 6 6 5 5 4 4 7 8 9 11 13 15 16 18 18
21 21 21 22 22 22 22 22 22 22 22 21 21 21 21 21 20 20 19 19 19 18 18 17 17 16 15 14 13 12 11 12 11 10 9 10 14 17 18 17 15 15 16 16 18 19 18 18 18 18 16 14 14 14 13 13 13 11 10 10 8 8 7 8 9 7 5 2 2 3 3 3 6 5 6 5 4 4 5 7 9 10 12 13 15 16 17 18
22 22 22 23 23 23 23 23 23 23 22 22 22 22 22 21 21 20 20 19 19 19 19 18 17 16 15 14 13 12 10 9 7 6 7 8 10 14 17 18 17 16 17 16 18 19 19 19 18 18 16 15 15 14 14 15 14 11 12 13 10 9 8 8 10 9 6 4 3 4 4 4 6 5 6 6 4 4 5 7 9 11 12 14 15 16 17 17
23 23 23 23 24 24 24 24 24 24 23 23 23 23 22 22 21 21 20 20 20 19 19 18 17 16 15 14 13 12 10 9 7 6 6 6 8 12 14 16 18 17 17 17 18 19 19 19 18 17 16 15 16 15 15 16 15 12 12 13 12 12 9 8 10 9 8 6 4 5 5 5 6 5 6 6 4 5 6 7 10 11 12 13 14 16 16 17
24 24 24 24 25 25 25 25 25 25 25 24 24 24 23 23 22 21 21 20 20 19 19 18 17 16 15 14 13 13 13 13 13 11 8 6 6 10 13 15 16 17 18 18 19 19 19 20 19 17 16 15 16 16 16 16 16 14 12 12 12 13 12 10 10 9 10 9 6 5 5 6 6 6 6 6 6 6 6 8 11 11 12 12 13 16 16 16
25 25 25 25 25 26 26 26 26 25 25 25 25 24 24 24 23 22 21 21 20 20 19 18 16 16 15 14 14 14 15 16 15 13 11 8 7 9 13 15 16 17 18 19 20 20 19 20 20 18 16 16 16 16 16 15 16 15 13 12 12 13 13 12 12 11 11 11 9 6 6 6 5 7 8 7 7 7 7 9 11 12 13 13 13 15 16 15
26 26 26 26 26 26 26 26 26 26 26 26 26 25 25 24 23 23 22 22 21 20 19 18 17 16 15 15 15 14 16 16 14 13 12 11 10 10 13 15 17 17 17 19 20 20 20 20 20 19 17 16 16 16 16 15 14 15 15 14 13 14 13 13 13 13 12 11 10 7 7 7 7 9 8 7 8 7 9 10 12 12 13 13 14 15 15 15
27 27 27 27 27 27 27 27 27 27 27 27 26 26 26 25 24 24 23 22 22 21 19 18 17 16 16 16 15 14 15 14 13 14 14 12 12 12 13 15 17 18 18 18 20 21 21 20 20 19 18 17 17 16 16 15 14 15 16 15 15 15 15 14 13 13 12 12 12 9 9 8 8 9 7 8 10 9 10 11 12 13 13 13 14 15 15 14
27 27 27 27 28 28 28 28 28 28 28 27 27 27 26 26 25 24 24 23 22 22 20 19 18 17 17 16 15 16 16 13 13 15 15 14 13 14 14 15 16 18 19 18 20 22 22 21 19 19 18 17 17 17 17 17 16 16 16 16 16 16 15 15 14 14 12 12 13 11 10 9 9 10 9 10 11 10 11 11 12 13 12 13 14 14 14 14
27 27 28 28 28 28 28 28 28 28 28 28 28 27 27 26 26 25 25 24 23 22 21 20 19 18 18 17 19 19 16 15 14 14 16 15 15 15 16 16 16 18 19 19 19 21 23 22 21 20 18 17 17 16 16 18 18 18 17 16 16 16 16 16 16 16 13 11 12 12 11 10 9 10 12 12 12 12 12 12 12 12 12 13 14 14 14 15
28 28 28 28 29 29 29 29 29 29 29 28 28 28 27 27 27 26 25 24 23 22 22 21 20 20 19 18 21 22 20 19 18 18 18 17 16 15 16 17 17 17 19 20 19 21 23 23 22 21 20 18 17 16 15 17 18 17 17 15 15 16 16 16 16 17 15 12 12 11 10 11 9 10 15 14 13 13 12 12 12 11 12 12 13 13 14 15
29 29 29 29 29 29 29 29 29 29 29 29 29 28 28 28 27 26 25 25 24 23 22 21 21 21 20 20 22 24 23 22 21 20 20 19 18 17 16 17 17 17 18 20 20 20 22 23 22 22 21 20 18 17 17 16 16 16 16 16 15 15 14 15 15 16 16 14 14 11 9 10 8 11 17 15 15 14 12 13 12 12 12 12 12 13 14 14
30 30 30 30 30 30 30 30 30 29 29 29 29 28 27 28 27 26 26 25 23 23 22 22 21 21 21 22 24 23 23 23 23 22 21 20 20 19 18 18 18 18 18 19 20 20 21 22 23 22 21 21 20 18 18 16 16 15 16 16 16 15 15 14 15 15 15 15 16 14 10 10 8 10 17 18 16 15 13 13 13 13 13 12 12 13 13 13
30 30 31 31 31 31 31 31 30 30 29 29 28 28 27 27 27 26 25 23 22 22 22 22 22 22 21 21 22 22 21 22 23 23 22 21 21 20 19 19 19 19 19 19 20 19 20 21 22 22 21 21 20 19 18 17 16 16 16 15 14 15 16 14 14 15 16 15 16 16 12 10 9 10 17 20 17 16 14 13 13 13 14 13 12 12 12 12
31 31 31 31 31 31 31 31 31 30 29 29 29 28 27 28 27 24 22 21 22 22 23 23 23 24 24 22 21 21 21 22 22 23 23 22 22 22 21 20 20 20 20 20 20 20 20 20 21 21 22 21 20 19 19 19 18 16 16 16 15 15 16 15 14 15 17 17 16 16 13 11 10 10 17 21 18 16 15 13 14 13 13 13 12 12 12 12
32 32 32 32 32 32 31 31 31 30 30 29 29 29 28 27 25 22 20 20 22 23 24 24 24 24 23 23 22 22 21 21 22 24 24 24 23 23 22 21 21 21 21 20 21 21 20 20 20 20 21 22 22 22 21 20 19 18 16 16 16 16 16 16 15 14 17 20 17 16 14 14 12 10 16 20 18 17 15 14 14 13 13 13 12 12 12 12
32 32 32 32 33 33 32 32 31 30 30 29 28 28 27 25 23 22 21 21 22 23 24 25 25 25 24 24 25 25 24 23 23 24 25 25 25 25 23 22 22 23 22 20 20 22 20 19 20 21 22 23 23 24 23 20 20 20 18 17 17 17 16 16 16 14 15 19 19 16 15 15 14 12 15 18 17 15 15 15 14 14 14 13 13 13 13 13
32 33 32 32 33 33 32 33 32 31 30 29 28 27 25 24 23 22 24 25 26 27 28 30 30 30 30 30 28 26 26 25 24 24 26 26 26 26 25 24 23 24 23 21 20 22 21 21 22 22 22 23 24 25 24 22 22 21 19 18 18 17 16 16 16 15 14 17 18 16 16 17 16 15 15 17 17 14 15 16 15 15 14 14 14 13 13 13
33 33 33 33 34 33 33 33 32 31 30 29 28 26 24 25 24 25 29 30 28 29 32 33 34 35 33 32 32 28 26 25 24 25 26 27 27 26 26 25 24 24 23 22 21 21 23 23 23 23 22 22 24 25 25 24 24 23 21 19 19 18 17 16 16 16 16 16 16 17 17 17 18 17 16 18 17 16 17 17 16 17 15 14 15 14 14 14
34 34 35 35 34 35 34 33 31 31 29 27 27 25 24 25 26 28 31 31 29 30 34 35 36 37 34 33 35 32 28 27 27 26 26 28 28 27 26 26 25 24 23 24 23 22 24 24 24 22 22 23 23 24 26 26 25 24 22 20 19 19 16 16 16 15 17 16 14 17 17 16 18 19 18 18 17 17 19 19 17 18 17 15 15 15 14 14
35 36 36 36 35 36 34 33 32 30 28 27 26 25 26 28 28 30 31 31 31 31 33 36 35 36 35 33 34 34 31 29 29 29 27 29 30 29 27 27 26 25 25 27 26 25 24 22 23 23 23 23 24 24 26 26 26 24 23 21 21 20 18 16 16 15 17 16 14 16 16 16 18 19 19 19 18 18 21 20 18 19 18 17 17 16 15 15
37 37 37 37 36 36 35 33 30 29 28 28 27 27 28 29 30 31 31 30 30 29 29 32 33 33 33 31 31 33 32 30 30 30 29 30 30 29 29 28 27 27 26 28 28 28 25 20 20 24 24 24 25 25 26 25 25 26 25 23 21 21 21 18 16 16 18 17 16 15 15 16 18 18 19 20 18 18 22 22 19 19 19 18 17 17 17 16
37 37 37 37 36 36 36 32 28 28 29 28 28 29 31 31 30 31 31 29 27 25 23 24 26 27 29 30 31 32 31 32 32 31 30 31 31 29 29 28 28 28 28 29 29 29 27 22 21 24 25 25 25 25 26 25 24 25 27 26 24 22 22 20 18 17 17 19 18 16 14 15 18 19 19 20 19 19 22 23 20 19 19 19 18 17 18 17
38 37 37 37 36 35 33 28 27 29 29 28 30 32 32 32 32 32 29 27 25 22 18 17 19 20 22 27 30 30 30 32 34 33 31 32 33 30 29 29 28 29 29 27 27 27 27 25 24 24 25 26 26 25 26 26 24 24 25 26 26 23 22 22 20 17 17 19 20 19 15 14 17 19 19 21 21 21 22 23 21 20 20 19 19 19 18 18
37 37 37 36 35 33 29 26 28 29 27 29 31 33 33 32 32 31 27 25 23 19 16 15 15 15 17 21 27 29 28 28 30 34 34 32 33 32 31 30 28 29 28 26 27 27 26 28 27 26 25 25 26 25 24 26 25 23 22 24 26 26 25 23 21 18 16 17 21 22 19 15 16 19 19 21 22 22 23 24 22 21 21 21 20 20 20 19
37 37 36 35 34 32 28 27 28 27 27 30 32 32 32 32 32 29 24 23 20 16 15 16 16 16 17 19 26 31 28 24 25 32 35 34 34 33 33 32 30 29 29 28 29 26 25 28 29 27 26 25 25 25 23 25 25 23 21 22 23 25 26 25 22 20 17 15 19 23 22 16 16 18 19 20 22 22 22 23 24 23 22 22 22 21 21 20
37 37 36 34 33 30 27 26 27 27 28 31 31 31 32 31 30 25 22 22 19 16 17 18 18 18 18 18 24 30 29 26 24 26 33 35 35 34 33 33 31 29 31 32 30 25 24 27 28 28 27 26 24 24 24 25 25 22 22 21 21 23 25 25 24 21 18 17 18 21 24 19 16 18 19 20 22 22 22 22 23 25 24 23 23 22 22 21
38 37 36 34 31 29 27 27 27 28 29 31 31 32 31 28 25 22 20 21 19 18 20 20 19 20 20 18 21 26 30 30 26 24 29 34 35 35 33 32 32 30 30 32 32 29 26 26 27 28 28 26 24 23 24 26 25 22 22 22 21 21 22 23 24 22 20 20 19 20 22 21 17 19 20 20 20 20 21 21 22 25 26 24 24 23 23 22
39 37 35 32 28 27 27 26 27 27 28 30 30 29 27 23 21 19 20 21 21 21 21 21 21 22 21 20 20 23 27 31 29 25 26 30 33 34 32 31 32 31 30 31 32 31 29 27 27 28 28 27 25 24 24 25 25 24 22 22 21 20 20 21 23 24 22 21 21 20 20 20 19 19 20 20 21 20 20 20 22 25 26 25 24 23 24 23
38 37 34 29 26 25 24 24 26 26 27 28 27 25 23 20 18 17 19 21 22 21 20 22 24 23 23 23 21 21 23 27 30 28 26 27 32 34 34 32 32 32 32 31 30 30 31 31 27 26 28 29 27 25 24 25 26 25 23 23 22 19 19 20 20 22 23 21 22 21 20 21 20 19 19 20 21 22 19 18 21 25 26 25 25 24 24 23
38 35 30 26 24 24 23 24 25 25 25 26 24 22 20 18 16 18 20 20 21 22 22 24 25 24 23 22 20 19 21 22 25 28 28 28 30 33 35 34 32 32 32 29 28 28 29 30 31 29 28 30 30 27 25 25 26 27 26 25 23 19 19 20 19 18 20 20 22 22 21 21 21 19 18 19 20 21 21 19 20 25 28 26 26 26 25 24
36 31 27 24 24 23 23 23 24 25 25 24 22 20 18 16 16 19 21 20 21 24 25 24 24 24 22 20 16 15 18 19 17 21 26 28 30 32 34 36 35 32 30 28 28 29 28 28 33 33 28 28 32 29 26 25 25 27 26 24 24 22 19 18 18 17 16 17 20 23 22 20 19 20 19 18 19 19 20 22 22 24 27 27 27 27 26 25
34 28 25 24 24 23 23 23 24 24 24 22 20 18 16 16 17 19 20 20 20 23 25 24 23 23 23 21 17 14 16 19 16 18 23 25 29 31 31 34 35 33 29 29 29 29 30 29 30 32 29 27 30 30 27 25 24 25 25 25 25 24 20 16 17 18 16 14 16 20 21 19 17 19 20 20 21 20 19 22 24 25 26 26 26 27 26 24
31 27 24 24 23 23 23 23 23 22 21 20 18 17 17 17 18 18 18 20 19 20 23 22 20 21 22 23 21 18 18 18 17 19 21 21 24 29 30 31 33 33 32 30 28 28 29 29 27 29 32 31 29 30 30 27 24 23 26 28 24 22 21 18 16 17 17 15 16 18 19 18 18 19 19 20 23 23 22 21 23 25 28 27 26 27 26 24
31 27 24 24 23 22 23 24 22 21 20 18 17 17 16 16 17 18 18 19 19 18 19 20 18 17 20 22 22 21 20 19 18 18 19 19 20 20 23 27 27 29 32 32 31 29 27 27 27 29 33 33 30 29 31 30 26 24 27 27 22 20 22 21 16 15 16 16 16 19 20 19 19 19 19 21 22 23 24 24 23 24 27 29 27 27 26 24
30 28 24 24 23 23 25 25 22 21 19 17 16 16 16 16 17 18 18 19 19 17 16 17 17 17 19 21 22 21 20 20 19 17 18 20 19 14 14 20 21 20 24 27 31 32 28 24 26 29 32 32 30 29 30 32 30 26 25 25 23 22 23 23 19 16 16 15 15 18 20 19 19 20 20 22 23 22 22 25 25 24 25 28 27 27 26 24
30 27 23 22 23 24 25 23 20 20 17 15 16 16 16 17 17 19 20 19 19 17 15 16 17 18 19 20 22 22 21 21 20 18 19 20 21 17 15 18 19 18 19 21 25 31 31 25 23 27 30 30 30 31 31 32 33 29 24 24 26 24 22 23 21 17 15 14 14 15 16 17 18 19 20 21 22 22 21 22 24 24 25 27 26 26 25 24
30 27 22 23 24 25 24 22 19 18 16 16 16 16 16 17 17 19 20 19 18 17 15 16 17 18 20 20 21 21 21 22 21 21 22 21 21 21 18 17 17 19 21 23 24 28 32 30 25 24 27 29 31 33 34 33 33 32 28 26 27 25 22 22 21 20 17 13 12 13 12 14 15 16 19 21 20 20 20 20 21 23 25 26 26 26 26 25
30 25 22 24 26 25 24 21 18 17 16 16 16 16 17 18 18 19 19 19 18 17 16 16 17 18 19 20 20 19 20 22 22 23 24 23 22 21 20 16 16 17 19 22 24 23 25 31 31 26 25 29 33 34 35 34 33 33 30 27 27 26 23 22 21 22 21 16 13 12 11 12 13 13 17 20 19 19 19 18 19 21 23 25 26 26 26 26
29 24 23 25 28 28 24 20 18 17 16 16 17 17 18 18 18 18 18 19 18 17 16 15 16 17 18 19 20 19 20 21 23 24 25 24 25 25 21 17 16 17 17 21 25 23 23 28 32 30 26 27 30 32 33 33 33 32 30 27 26 27 26 23 20 21 21 20 17 13 10 10 10 12 16 19 18 17 17 16 17 20 21 24 26 27 26 26
28 27 26 26 28 28 24 19 18 17 16 17 18 18 18 17 17 17 17 18 18 18 17 15 15 16 17 19 20 20 21 21 22 23 25 26 26 25 22 19 18 17 18 21 23 23 24 27 29 30 28 25 27 30 32 32 31 32 32 30 27 28 28 24 20 20 20 21 19 15 12 11 8 8 11 16 16 15 16 15 15 19 21 23 26 27 25 25
30 29 27 26 29 27 22 19 19 18 18 18 18 17 17 17 16 16 16 17 17 17 17 16 15 15 17 19 20 20 20 21 22 22 24 26 26 25 23 21 20 19 18 20 21 21 25 27 26 25 26 24 24 29 32 33 32 31 33 33 30 28 28 25 21 20 19 21 22 17 14 13 9 4 7 13 14 14 15 14 15 18 20 22 25 26 25 24
31 29 27 29 30 26 21 20 19 18 18 18 17 17 17 16 15 16 16 17 17 16 17 17 16 15 16 18 19 19 18 20 22 22 23 25 26 26 25 23 22 21 20 20 21 22 26 30 27 25 26 24 21 25 30 33 33 31 32 35 33 30 28 26 23 21 19 21 22 20 17 15 12 8 9 11 11 11 12 12 12 15 17 20 22 25 26 25
30 29 29 30 29 24 21 20 20 18 16 17 17 16 16 15 16 16 15 15 16 16 18 17 15 14 13 15 18 18 17 19 23 23 22 23 24 25 25 24 23 23 22 20 19 22 27 31 31 29 28 25 22 21 26 32 33 31 31 33 35 33 29 26 24 23 20 19 21 21 19 17 15 13 13 12 10 10 11 11 10 11 15 19 22 23 25 25
29 29 30 30 27 23 21 20 20 18 17 17 16 15 15 15 15 15 14 14 16 17 17 16 14 13 12 13 16 18 17 19 23 23 22 23 23 24 25 25 25 24 21 18 17 20 25 28 30 31 29 27 26 22 21 29 35 34 31 31 34 35 33 28 26 25 21 18 19 20 19 17 17 16 16 15 12 11 12 12 9 10 14 19 21 23 24 23
28 29 30 29 27 24 23 22 21 20 19 18 16 14 15 15 15 14 13 14 16 17 15 14 14 14 13 13 15 18 18 19 22 22 20 21 22 22 23 23 24 23 21 18 17 19 24 27 26 28 28 27 27 24 19 22 30 34 32 31 32 35 37 32 26 25 23 20 19 20 20 19 17 15 15 16 14 14 15 13 10 11 15 16 18 21 23 21
28 28 28 28 27 25 24 23 21 19 17 16 14 13 13 14 14 14 14 15 16 15 14 15 16 15 14 14 14 17 18 18 20 22 20 20 20 20 21 22 22 23 21 20 19 19 23 26 23 23 27 27 25 24 20 18 22 27 31 33 31 32 36 35 28 23 23 22 20 19 20 20 17 15 14 14 15 16 16 13 11 12 14 14 15 19 21 20
28 27 28 28 27 25 24 21 18 15 14 13 12 12 12 13 14 14 15 15 16 15 15 17 17 15 14 14 14 17 18 18 20 22 21 20 19 20 21 22 22 23 23 21 20 20 21 24 23 22 26 27 25 24 21 19 19 21 25 30 32 31 33 35 31 24 22 22 21 20 19 19 17 15 13 14 16 15 13 12 11 13 14 15 17 19 19 20
27 27 27 28 27 25 23 20 16 13 12 11 11 12 12 13 15 15 15 15 15 15 15 17 16 15 15 14 13 16 18 18 20 23 23 22 21 20 22 23 23 24 24 23 22 21 22 23 23 22 24 27 27 26 23 20 20 21 22 26 29 28 30 33 32 27 23 22 22 19 18 18 18 18 16 15 15 15 12 12 12 12 12 14 17 19 19 20
27 26 26 26 26 24 22 19 15 12 12 11 12 13 13 15 16 16 14 13 14 15 16 16 15 14 14 14 13 14 17 18 20 22 24 24 23 22 23 26 26 25 25 25 23 23 23 22 21 22 24 25 27 28 25 20 19 22 23 24 24 22 24 31 33 28 23 23 22 20 19 20 20 19 18 18 16 14 13 13 13 12 10 11 14 16 17 18
Wind_Direction
326 325 325 324 323 322 321 321 320 319 318 317 315 314 313 311 310 308 307 305 303 301 299 298 296 295 295 295 295 293 292 285 276 263 252 248 239 235 231 224 221 214 211 209 207 204 203 205 204 205 208 209 214 215 209 207 209 208 209 225 224 212 210 204 204 188 191 261 353 260 261 190 163 148 147 150 149 152 161 164 162 156 153 161 160 157 157 157
325 324 324 323 322 321 320 319 318 318 316 316 315 313 312 310 308 307 305 303 301 299 297 295 294 293 292 292 292 292 291 284 277 263 252 248 241 234 227 223 221 212 208 209 208 204 201 203 204 205 208 210 212 213 212 208 207 210 212 223 221 207 204 196 199 206 214 262 298 302 185 183 182 158 159 162 146 152 164 168 164 154 153 158 161 162 161 161
324 324 323 321 320 319 318 317 317 316 315 315 313 312 312 310 308 306 303 301 299 297 295 293 292 290 289 287 288 289 287 285 277 264 257 250 237 230 222 218 216 211 210 209 207 205 202 201 203 204 208 211 210 210 213 209 208 212 212 220 221 207 209 208 208 223 233 266 270 264 306 201 195 179 182 176 155 175 181 171 167 159 155 158 166 167 164 164
324 323 322 321 319 318 317 316 315 315 314 313 312 311 310 308 307 304 302 299 297 295 293 291 289 287 285 284 283 283 284 283 274 260 263 254 232 224 221 218 214 212 211 210 207 206 206 203 202 204 207 210 209 210 212 210 209 212 212 221 221 208 217 217 209 222 238 249 217 239 290 199 188 189 190 183 178 201 196 176 169 160 159 162 167 170 170 168
323 322 321 320 318 317 316 315 314 313 312 311 310 309 308 307 305 303 301 298 296 294 293 290 287 284 281 279 276 275 278 278 269 256 268 261 232 219 218 216 213 212 211 210 208 208 210 208 204 205 207 209 209 210 213 212 210 212 215 224 226 212 220 217 207 222 234 209 190 241 260 191 186 201 193 197 211 206 195 176 166 162 164 168 169 172 175 172
323 321 320 319 318 317 315 314 313 312 310 309 308 307 306 304 303 301 299 297 295 293 291 288 285 281 277 274 270 267 264 264 264 262 272 268 235 216 212 210 209 210 211 209 208 210 213 211 207 207 208 210 210 210 213 213 212 216 216 222 224 211 217 217 206 217 219 205 206 237 238 190 188 209 203 203 199 187 185 170 164 165 167 171 168 172 179 175
322 321 319 318 317 315 314 314 312 311 309 307 306 304 303 302 301 299 297 295 293 291 290 287 282 277 274 269 264 261 257 261 261 255 259 267 243 218 209 206 205 207 210 210 209 211 214 212 209 210 210 212 213 213 215 214 214 219 219 222 218 209 216 215 207 214 210 212 225 223 216 204 199 212 212 198 183 179 176 166 164 165 168 172 168 174 182 178
321 320 319 317 316 315 314 313 312 310 308 307 305 303 302 300 298 297 295 293 291 290 287 284 280 274 269 263 261 260 256 259 256 249 249 252 246 224 212 207 205 205 208 212 210 211 215 214 210 210 212 214 214 215 218 219 217 219 222 223 214 209 221 222 217 222 221 223 229 222 221 226 215 210 208 186 176 178 170 164 164 166 170 174 173 178 184 181
321 320 319 317 316 315 313 312 311 309 308 306 304 303 301 299 297 294 292 291 289 287 283 280 277 270 264 260 259 260 257 255 252 247 245 243 240 228 217 212 209 209 211 213 212 212 215 215 211 211 215 216 216 217 219 221 220 219 221 225 217 210 221 227 221 223 230 232 226 223 235 240 221 205 199 175 174 176 168 165 165 169 173 175 176 181 187 185
321 320 319 317 316 314 313 312 311 309 308 305 303 302 300 298 296 293 290 288 285 283 280 276 272 267 262 258 256 257 256 255 254 247 239 236 232 224 221 217 213 213 214 214 214 215 215 216 212 212 217 219 219 220 221 222 222 222 223 227 227 220 220 223 221 223 232 236 225 219 228 229 213 210 206 186 184 174 166 166 167 171 175 177 177 180 188 190
321 320 319 318 316 315 313 312 311 309 307 305 303 301 298 297 294 292 290 286 283 279 276 272 268 263 259 257 252 252 252 253 259 246 232 231 229 224 222 220 217 215 215 215 215 215 216 217 213 213 218 219 222 224 224 226 226 229 229 227 228 229 227 222 223 225 227 234 229 223 227 219 211 222 216 191 183 174 168 166 168 173 176 179 179 180 185 191
322 321 320 318 316 315 314 312 311 309 307 305 303 300 297 295 292 290 288 285 281 276 272 269 264 259 258 256 248 248 252 253 258 248 233 231 230 229 225 220 220 218 215 215 215 215 217 217 216 217 218 218 223 226 226 227 229 234 236 232 227 229 232 229 230 230 227 232 228 224 230 226 223 221 203 186 178 172 170 167 168 174 176 180 181 182 184 190
323 321 320 319 317 316 314 313 311 309 307 305 303 300 296 293 291 289 286 282 278 274 271 266 262 257 255 254 249 251 256 254 254 251 244 237 229 228 227 222 221 220 217 217 216 216 217 217 219 221 221 220 223 225 229 228 228 232 235 233 230 229 231 231 233 233 229 228 222 220 228 229 230 208 192 186 177 171 172 174 174 176 178 180 183 185 187 191
323 322 321 319 318 317 315 313 312 310 307 305 303 300 296 294 291 288 284 279 275 272 269 264 259 255 253 255 256 256 255 253 252 250 246 240 228 222 225 223 221 221 219 219 219 217 217 218 221 223 223 224 226 228 231 227 225 230 233 230 229 229 230 228 227 227 227 221 210 215 228 227 225 201 192 189 180 176 179 180 178 178 180 183 185 187 191 194
323 322 321 320 319 317 316 314 313 311 308 306 304 300 297 295 291 288 282 276 274 270 266 262 257 255 256 257 259 258 251 249 249 244 241 241 231 223 223 222 221 221 219 219 221 220 219 220 222 223 223 225 228 229 229 227 227 229 230 229 226 226 230 228 222 221 223 217 205 210 225 220 215 205 195 188 182 182 182 184 183 181 181 185 187 186 192 197
322 322 321 319 318 317 316 315 313 311 309 308 305 302 298 296 293 287 280 273 272 269 263 260 257 255 258 258 258 256 248 244 243 239 237 240 235 228 224 221 221 222 219 218 220 221 222 223 222 222 223 223 223 224 226 228 229 228 226 228 226 223 227 229 224 219 218 215 209 211 221 215 213 210 196 189 187 188 188 188 185 182 183 185 186 187 192 196
322 322 321 319 318 317 316 314 313 311 310 309 306 304 299 296 294 285 278 275 272 268 262 259 258 256 256 256 257 256 248 242 240 236 234 235 235 232 225 221 222 222 221 219 219 220 223 224 222 221 222 222 221 220 223 225 226 226 225 226 228 225 224 225 225 221 216 214 209 210 216 215 214 206 192 189 189 188 189 188 184 184 186 186 186 189 193 195
323 322 321 319 318 317 316 314 312 310 310 308 306 304 298 295 292 281 276 276 273 269 263 259 257 256 255 253 253 254 250 244 239 234 232 231 232 232 226 222 222 221 222 222 220 220 222 223 221 221 222 221 220 218 221 222 220 224 224 221 227 229 227 224 224 222 216 212 208 208 213 213 213 202 189 189 187 187 189 189 188 189 189 189 187 189 193 194
324 323 322 321 319 318 317 314 312 310 309 308 307 305 298 294 290 278 274 277 274 269 264 259 254 253 258 258 254 251 251 250 242 232 230 229 229 231 228 223 221 220 221 223 221 220 221 223 222 222 222 220 220 220 221 222 220 223 225 221 222 226 229 226 224 224 212 206 205 206 210 211 210 200 189 186 185 188 193 195 195 194 194 194 192 193 195 195
324 323 323 322 320 318 317 315 312 310 309 308 307 304 300 299 292 280 279 280 274 268 263 260 256 254 258 260 257 254 253 254 246 232 228 227 225 227 227 223 221 221 223 223 222 220 221 225 225 223 222 220 220 221 222 222 222 224 227 228 225 221 225 224 223 222 209 201 205 208 210 211 208 201 194 189 190 198 200 200 200 199 201 198 195 197 196 195
325 324 323 323 320 318 318 316 312 310 309 308 307 304 304 305 296 287 287 281 272 268 263 259 257 254 253 254 254 253 251 251 248 238 229 225 223 224 225 223 222 223 223 222 223 222 223 228 227 224 223 221 220 220 221 222 223 224 227 233 230 222 221 220 223 223 210 205 210 209 210 212 207 204 204 201 206 211 206 205 205 203 204 202 199 199 196 195
324 323 322 322 320 318 317 316 312 310 309 308 307 306 307 306 298 293 291 281 273 272 267 261 256 253 251 250 249 248 246 245 247 243 230 222 222 222 222 222 223 224 221 220 223 222 224 229 227 223 223 223 222 219 220 222 223 224 225 230 233 228 224 224 226 220 207 207 212 209 212 213 206 209 213 212 216 215 207 207 207 205 206 205 203 202 199 197
323 322 321 320 319 317 316 314 310 309 308 307 307 307 307 305 301 297 292 283 277 275 268 259 254 251 248 247 244 242 240 239 242 242 231 221 222 222 221 223 223 223 220 220 223 222 225 229 225 222 222 222 223 221 219 221 223 224 223 225 229 228 228 228 224 214 206 210 212 209 215 218 210 213 219 216 215 212 208 207 205 206 210 210 207 203 201 199
322 321 320 320 318 316 315 312 308 308 307 305 307 307 307 305 302 300 294 284 279 278 271 260 253 250 247 244 241 237 237 236 236 238 230 221 221 222 223 224 222 223 223 221 223 225 227 227 221 221 223 221 222 222 220 220 222 224 224 224 225 227 229 228 225 221 213 212 213 211 218 221 214 216 219 215 212 210 208 207 206 209 212 212 211 207 204 202
321 320 319 319 318 316 314 310 308 308 306 304 306 307 306 305 303 301 294 284 280 279 274 262 253 252 247 241 238 235 234 235 234 234 230 222 221 222 223 224 223 224 224 221 223 228 228 225 219 220 222 221 222 222 221 220 221 223 225 225 224 226 228 226 229 230 217 212 215 212 218 225 220 217 216 212 213 213 209 210 212 212 212 212 213 211 207 205
322 320 319 318 318 318 314 309 309 309 305 304 306 306 305 303 302 299 291 283 279 277 274 262 252 253 249 239 234 233 234 235 232 232 232 225 221 222 223 224 225 225 223 222 226 229 227 224 223 221 220 221 223 223 221 219 221 223 222 223 224 226 227 225 229 234 222 215 216 214 217 226 222 218 216 212 215 216 211 214 218 215 212 211 212 212 209 207
322 321 320 319 318 318 314 309 310 310 306 305 307 307 305 302 300 297 287 276 274 273 269 260 252 254 256 240 226 227 234 233 229 230 231 226 222 222 224 224 225 225 222 223 227 228 223 222 225 223 220 221 222 223 220 217 221 224 218 218 222 224 227 227 229 234 230 221 217 215 217 223 222 220 218 215 218 220 216 217 220 216 213 211 211 211 209 208
323 322 321 320 319 317 312 309 310 309 306 307 308 307 305 303 300 293 281 270 267 266 265 261 254 254 264 250 225 225 234 229 226 229 228 225 222 221 224 225 224 224 221 223 227 226 221 221 223 223 222 222 222 222 219 217 221 222 218 218 220 221 225 228 229 231 233 228 220 216 215 221 228 223 219 217 220 223 221 220 220 218 214 210 210 210 208 208
324 323 322 321 319 317 313 311 310 309 309 311 311 309 308 304 299 288 274 266 263 263 265 261 254 256 267 258 230 229 233 229 230 228 223 224 223 221 225 225 224 225 223 226 229 226 223 222 222 223 224 223 222 220 218 219 221 219 218 220 220 220 222 225 227 229 233 232 225 218 215 221 230 224 219 220 222 224 224 224 222 219 214 210 211 211 208 209
325 323 322 321 319 318 317 314 312 312 314 315 313 312 310 304 299 289 271 264 263 266 264 256 256 262 266 258 238 233 233 232 235 229 221 223 221 221 224 224 224 226 225 227 229 228 226 223 222 223 224 223 221 220 218 219 219 217 217 220 221 221 221 222 225 227 233 231 225 223 220 221 230 226 221 222 223 222 222 224 222 218 215 212 212 212 209 210
325 323 322 320 318 317 317 315 315 315 316 317 315 314 311 306 302 288 273 270 269 266 260 255 259 263 263 258 246 240 237 233 233 230 224 222 219 219 220 220 222 224 225 226 227 227 226 224 222 223 223 221 220 219 218 217 216 215 215 215 219 223 220 221 221 222 230 231 225 227 226 224 229 229 226 227 224 219 220 223 219 216 216 214 211 210 209 210
325 324 322 319 317 316 314 314 317 318 318 320 320 318 316 313 306 289 282 279 269 262 260 262 263 261 261 256 245 245 245 235 229 228 226 222 219 218 218 219 218 219 224 225 223 224 224 224 224 222 220 219 218 218 216 214 212 213 213 211 213 217 217 218 219 220 227 232 228 228 231 231 232 233 231 228 224 220 222 225 219 213 214 213 210 208 207 209
326 324 322 320 317 315 313 315 319 320 321 323 322 320 319 318 312 304 299 285 268 264 264 264 263 259 258 250 242 252 252 235 226 228 228 224 221 220 219 219 219 219 224 225 223 223 224 224 224 223 220 217 216 216 214 211 210 210 211 209 209 212 215 218 221 222 226 229 227 227 233 236 236 236 231 226 224 223 222 225 217 209 210 212 209 207 206 207
327 325 323 321 318 315 315 317 320 320 321 324 324 322 320 316 316 318 311 294 277 269 266 265 263 258 253 242 244 261 246 228 228 231 229 225 222 220 219 218 220 221 223 224 224 223 223 223 221 220 219 214 214 216 214 211 210 211 212 212 212 213 215 218 221 223 225 227 224 223 229 234 233 232 230 228 226 221 221 223 217 208 210 212 209 206 206 208
329 326 324 323 320 318 319 320 320 320 320 323 325 325 324 319 320 323 319 308 289 274 269 267 260 255 248 239 247 258 234 229 242 236 225 224 223 220 218 218 218 220 221 222 224 223 224 225 222 220 220 215 214 216 215 212 212 212 212 214 215 213 214 220 224 222 222 228 224 221 227 232 234 235 231 228 226 223 223 223 218 212 210 211 209 206 207 210
331 328 325 323 321 321 323 324 323 320 319 321 320 323 324 321 321 323 323 318 302 283 275 265 253 250 246 241 245 247 237 239 245 230 220 225 226 221 220 218 217 220 221 222 223 223 225 226 221 218 219 218 215 214 213 213 213 210 211 214 214 211 214 220 224 220 218 228 227 225 232 235 236 239 233 225 225 227 227 222 218 214 210 210 210 207 207 208
333 330 324 322 321 320 322 323 320 316 317 317 315 317 319 317 322 323 323 324 312 294 277 260 249 249 249 244 242 245 245 243 237 227 225 226 221 219 221 218 215 220 225 227 228 225 226 228 222 217 218 217 215 213 214 214 213 210 211 212 209 210 216 219 222 218 217 226 227 225 232 233 229 232 230 227 227 227 225 222 219 215 211 211 211 209 207 206
333 329 322 320 321 319 321 320 316 313 314 314 312 314 315 315 322 325 325 327 319 304 282 259 249 250 251 246 242 245 246 239 231 230 228 219 211 215 220 214 214 222 227 230 230 225 226 230 225 218 217 215 213 213 214 214 214 214 212 209 207 211 213 213 217 217 215 223 227 225 227 228 226 225 223 225 227 225 223 220 218 215 212 211 211 209 208 207
334 330 323 325 327 322 322 319 313 312 311 309 310 313 314 315 321 325 324 325 323 312 290 268 256 252 250 248 244 242 239 233 230 228 222 216 217 224 218 210 218 227 228 229 226 221 222 226 226 219 214 212 211 212 212 211 211 213 212 208 209 214 212 211 216 217 214 220 224 226 226 226 229 226 221 221 222 220 218 217 216 214 211 210 209 207 208 209
336 330 321 326 329 324 321 316 311 311 307 305 309 310 313 316 321 323 322 323 324 318 299 278 264 254 250 249 244 239 234 231 229 225 221 221 226 227 214 208 221 229 231 228 219 216 219 221 224 221 212 208 210 211 211 208 207 209 210 207 206 209 210 212 216 217 216 219 220 222 228 231 232 229 223 220 218 214 212 212 214 212 210 210 208 207 209 209
336 330 320 324 327 323 321 316 311 310 305 303 306 308 311 314 317 319 320 323 323 319 308 288 269 256 250 247 243 239 233 230 229 225 222 223 224 217 209 215 231 232 230 225 216 214 220 219 220 220 214 210 211 212 211 209 207 209 211 209 206 206 207 210 215 215 215 221 220 218 228 235 234 233 225 219 215 211 207 208 211 210 209 210 208 206 207 207
337 333 324 326 329 324 319 315 312 309 305 303 304 306 308 310 313 315 318 321 321 320 317 300 277 261 249 245 245 243 236 232 230 227 224 223 221 217 218 229 237 230 227 223 217 219 223 217 215 217 217 215 213 211 210 209 208 209 212 213 210 208 208 210 213 212 212 219 224 225 230 230 237 241 223 211 210 208 202 204 210 210 210 210 207 205 204 205
338 332 325 326 331 327 318 312 312 308 303 302 303 306 307 306 308 312 314 318 319 320 320 310 289 269 253 247 247 247 242 234 228 228 228 224 220 221 227 233 232 226 223 219 216 219 219 211 210 214 216 220 220 212 208 208 207 209 213 213 212 211 209 211 214 210 209 215 218 222 224 222 242 254 213 197 198 199 198 204 210 210 209 206 204 203 202 203
333 330 326 325 330 330 322 314 312 307 303 302 301 304 305 303 306 311 313 315 317 318 320 314 298 277 260 250 245 247 245 233 225 229 229 223 220 225 229 230 228 222 218 219 220 222 218 210 210 211 209 214 217 208 203 204 206 209 211 211 213 211 207 208 212 210 211 214 212 213 218 219 231 237 179 180 185 189 198 207 208 207 204 201 200 198 198 201
331 331 331 329 329 327 321 318 313 307 305 304 301 302 301 299 305 309 309 312 314 318 319 315 304 287 266 250 244 244 242 232 227 227 227 223 223 224 225 227 229 223 221 231 234 226 217 211 210 209 206 206 207 203 201 202 203 208 210 210 212 212 206 205 208 210 212 213 210 211 216 220 219 199 172 176 185 194 205 207 202 201 199 198 198 196 196 199
334 333 333 334 333 327 321 320 316 311 309 307 304 303 300 297 301 304 305 309 314 318 319 315 308 294 273 254 246 243 240 233 228 225 226 226 223 222 225 227 228 225 227 238 236 219 211 210 210 210 209 207 209 210 207 202 201 205 208 208 210 211 209 205 206 210 211 207 209 212 211 212 213 202 192 194 197 201 203 197 194 196 192 193 196 197 196 198
336 336 336 337 336 332 326 322 317 310 305 305 304 303 300 298 300 302 304 309 315 317 317 316 311 300 283 266 251 244 243 238 230 227 228 226 222 225 228 225 222 224 226 229 226 214 210 210 210 212 212 212 215 219 214 206 202 202 206 208 208 208 210 208 205 208 207 202 210 212 202 203 210 208 209 214 209 200 198 196 198 192 182 186 194 196 194 195
338 338 339 340 336 332 328 322 315 307 300 301 302 299 299 300 300 303 306 309 314 317 317 314 312 305 292 276 256 245 244 239 232 228 226 225 224 226 226 222 217 216 215 216 217 214 210 207 208 213 215 215 216 215 214 209 204 202 205 210 208 206 209 211 207 205 204 204 210 208 199 200 208 210 216 218 208 198 196 193 189 180 174 181 188 187 186 189
339 338 340 342 338 331 326 320 314 308 303 301 300 298 299 301 302 305 309 310 311 316 318 313 310 308 299 283 259 245 241 237 231 226 223 224 224 223 223 220 213 206 207 214 216 213 210 206 209 215 215 213 211 207 207 209 204 201 204 208 209 206 207 210 210 205 203 205 208 204 199 204 210 211 213 206 193 191 193 187 178 171 168 170 174 176 179 183
341 341 342 343 340 334 329 323 318 315 310 305 302 301 302 302 304 307 310 311 310 311 316 314 309 309 305 290 264 246 240 236 231 226 225 223 221 220 219 216 212 210 211 215 216 213 210 209 212 212 208 206 205 203 208 213 209 203 202 204 208 208 205 207 209 207 202 204 206 201 200 207 208 198 192 184 177 181 186 179 170 164 162 164 168 172 176 179
342 343 343 343 342 339 335 329 322 317 314 309 306 306 306 305 308 309 308 309 309 309 313 314 311 308 306 296 272 251 242 237 232 229 227 224 220 219 217 214 215 217 217 217 216 213 211 210 210 207 204 203 201 201 211 220 215 209 206 203 203 207 207 205 206 208 204 200 200 196 194 196 190 180 176 170 165 171 177 172 162 156 156 162 168 173 176 179
343 344 345 345 344 342 340 334 322 312 312 311 309 307 307 307 309 312 309 306 307 308 311 313 312 308 305 298 280 259 246 241 238 233 229 226 221 218 218 217 216 217 218 218 215 212 211 210 209 205 205 205 201 202 213 221 214 209 208 200 195 203 210 205 202 206 205 199 198 195 192 189 182 177 176 171 165 168 175 171 162 154 149 153 163 169 172 176